Preview of NWS' New Version of Forecast
This preview is not operational and should not be used for support decisions.

Regional Weather Roundup (RWR)

Issued by National Weather Service (NWS)

                            
000
ASUS44 KMEG 160500
RWRTN 
TENNESSEE HOURLY STATE WEATHER ROUNDUP
NATIONAL WEATHER SERVICE MEMPHIS TN
1200 AM CDT MON SEP 16 2019

TNZ002-004-019-021-049-052-054-088>092-160600-
WEST TENNESSEE
  
CITY           SKY/WX    TMP DP  RH WIND       PRES   REMARKS
MEMPHIS INTL   FAIR      79  69  71 CALM      30.07S                  
NWS MEMPHIS      N/A     73 N/A N/A MISG        N/A                   
JACKSON        FAIR      72  70  93 CALM      30.09R                  
DYERSBURG      FAIR      73  71  93 CALM      30.09S                  
$$

TNZ008-025-027-028-033-062-065-066-160600-
NORTH MIDDLE TENNESSEE
  
CITY           SKY/WX    TMP DP  RH WIND       PRES   REMARKS
NASHVILLE      FAIR      77  67  71 S3        30.09S                  
CLARKSVILLE    FAIR      73  68  84 CALM      30.08F                  
SMYRNA         FAIR      71  68  90 CALM      30.10S                  
CROSSVILLE     FAIR      65  61  87 CALM      30.18S                  
$$

TNZ061-075-076-078-094-096-097-160600-
SOUTH MIDDLE TENNESSEE
  
CITY           SKY/WX    TMP DP  RH WIND       PRES   REMARKS
$$

TNZ017-018-042-046-047-160600-
NORTHEAST TENNESSEE
  
CITY           SKY/WX    TMP DP  RH WIND       PRES   REMARKS
TRI CITIES     FAIR      61  57  87 CALM      30.16R                  
$$

TNZ012-013-036-069-073-074-160600-
CENTRAL EAST TENNESSEE
  
CITY           SKY/WX    TMP DP  RH WIND       PRES   REMARKS
KNOXVILLE      FAIR      71  59  65 CALM      30.10F                  
OAK RIDGE      FAIR      67  60  78 CALM      30.13S                  
$$

TNZ083-085-099-160600-
SOUTHEAST TENNESSEE
  
CITY           SKY/WX    TMP DP  RH WIND       PRES   REMARKS
CHATTANOOGA    FAIR      73  64  73 CALM      30.10S                  
$$

SKY/WX REPORTED AS FAIR MEANS FEW OR NO CLOUDS BELOW
12 THOUSAND FEET.